Flag for Russia Weather past 2 weeks in Yakutsk, Russia

Now
-9 °F

Sunny.


Feels Like: -28 °F
Forecast: -18 / -7 °F
Wind: 10 mph from North

Location: Jakutsk

Current Time: Mar 5, 2015 at 2:13:51 PM

Latest Report: Mar 5, 2015 at 1:30 PM


Visibility: 10 mi

Pressure: 29.98 "Hg

Humidity: 70%

Dew point: -17 °F

Location of YakutskLocation

Historic Weather in Yakutsk — Graph

°F

Yakutsk temperature yesterday

Maximum temperature yesterday: -11 °F (at 3:30 PM)
Minimum temperature yesterday: -35 °F (at 5:30 AM)
Average temperature yesterday: -24 °F

Past Weeks' High & Low Weather Summary

 TemperatureHumidityPressure
High-2 °F (Feb 18, 3:30 PM)84% (Feb 19, 12:30 PM)30.57 "Hg (Feb 19, 12:30 PM)
Low-38 °F (Feb 22, 6:00 AM)58% (Mar 2, 1:30 PM)29.83 "Hg (Feb 28, 4:30 PM)
Average-19 °F74%30.16 "Hg
* Reported Feb 18 12:00 Noon — Mar 5 12:30 PM, Yakutsk, Weather by CustomWeather, © 2015

Note: Actual official high and low records may vary slightly from our data, if they occured in-between our weather recording intervals... More about our weather records

Advertising

Yakutsk weather history for previous 24 hours

 ConditionsComfort  
Time TempWeatherWind HumidityBarometerVisibility
12:30 PM
Thu, Mar 5
-13 °FSunny.8 mph69%30.01 "Hg10 mi
12:00 PM-15 °FSunny.8 mph69%30.01 "Hg10 mi
11:00 AM-18 °FSunny.8 mph75%30.04 "Hg10 mi
10:30 AM-18 °FSunny.6 mph69%30.04 "Hg10 mi
10:00 AM-20 °FSunny.6 mph75%30.04 "Hg10 mi
9:30 AM-22 °FSunny.6 mph75%30.04 "Hg10 mi
9:00 AM-22 °FSunny.6 mph68%30.04 "Hg10 mi
8:30 AM-24 °FSunny.6 mph75%30.04 "Hg10 mi
8:00 AM-26 °FSunny.6 mph75%30.04 "Hg10 mi
7:30 AM-26 °FSunny.6 mph75%30.04 "Hg10 mi
6:00 AM-24 °FClear.8 mph75%30.07 "Hg10 mi
5:30 AM-24 °FClear.8 mph75%30.07 "Hg10 mi
5:00 AM-24 °FClear.8 mph75%30.07 "Hg10 mi
4:30 AM-24 °FClear.6 mph75%30.07 "Hg10 mi
4:00 AM-22 °FClear.8 mph75%30.07 "Hg10 mi
3:30 AM-22 °FClear.6 mph75%30.07 "Hg10 mi
3:00 AM-22 °FClear.6 mph75%30.07 "Hg10 mi
2:30 AM-22 °FClear.6 mph75%30.07 "Hg10 mi
2:00 AM-20 °FClear.6 mph75%30.09 "Hg10 mi
1:30 AM-20 °FClear.6 mph75%30.09 "Hg10 mi
1:00 AM-20 °FClear.6 mph75%30.09 "Hg10 mi
12:30 AM-20 °FClear.6 mph75%30.09 "Hg10 mi
12:00 AM-18 °FClear.6 mph75%30.09 "Hg10 mi
11:30 PM
Wed, Mar 4
-20 °FClear.6 mph75%30.09 "Hg10 mi
11:00 PM-18 °FClear.6 mph75%30.09 "Hg10 mi
10:30 PM-18 °FClear.8 mph75%30.09 "Hg10 mi
10:00 PM-18 °FClear.6 mph75%30.09 "Hg10 mi
9:30 PM-18 °FClear.8 mph75%30.09 "Hg10 mi
9:00 PM-18 °FClear.8 mph75%30.09 "Hg10 mi
8:30 PM-18 °FClear.6 mph75%30.09 "Hg10 mi
8:00 PM-18 °FClear.6 mph69%30.09 "Hg10 mi
7:30 PM-18 °FClear.6 mph69%30.09 "Hg10 mi
7:00 PM-18 °FClear.6 mph69%30.09 "Hg10 mi
6:30 PM-17 °FClear.6 mph69%30.09 "Hg10 mi
6:00 PM-17 °FClear.3 mph69%30.09 "Hg10 mi
5:30 PM-15 °FSunny.3 mph63%30.09 "Hg10 mi
5:00 PM-13 °FSunny.3 mph63%30.09 "Hg10 mi
4:30 PM-11 °FSunny.3 mph58%30.09 "Hg10 mi
4:00 PM-11 °FSunny.3 mph63%30.09 "Hg10 mi
3:30 PM-11 °FSunny.6 mph63%30.09 "Hg10 mi
3:00 PM-13 °FSunny.6 mph63%30.09 "Hg10 mi
2:30 PM-15 °FSunny.6 mph63%30.09 "Hg10 mi
2:00 PM-17 °FSunny.6 mph69%30.09 "Hg10 mi
Weather by CustomWeather, © 2015

See weather overviewHow to use our weather pages